Other Surface Observations
Issued by NWS

Current Version | Previous Version | Text Only | Print | Product List | Glossary On
Versions: 1 2 3 4 5 6 7 8 9 10 11 12 13 14 15 16 17 18 19 20 21 22 23 24 25 26 27 28 29 30 31 32 33 34 35 36 37 38 39 40 41 42 43 44 45 46 47 48 49 50
000
SXUS52 KTAE 060318
OSOTAE
OSOTAE
North Florida/South Alabama/Southwest Georgia Weather Roundup
National Weather Service Tallahassee Florida
1000 PM EST THU MAR 05 2015

Note: "fair" indicates few or no clouds below 12,000 feet with no
significant weather and/or obstructions to visibility.

!FLZ017-115-028-034-025-060400
...North Florida...

CITY           SKY/WX    TMP DP  RH WIND       PRES   REMARKS
TALLAHASSEE    MOCLDY    52  45  77 N10       30.22R
APALACHICOLA   CLOUDY    58  50  75 N10       30.19R
PERRY          NOT AVBL
CROSS CITY       N/A     68  66  93 NW5       30.15R
JACKSONVILLE   MOCLDY    65  65 100 W3        30.14R
$$

!FLZ112-006-005-002-011-060400
...Florida Panhandle...

CITY           SKY/WX    TMP DP  RH WIND       PRES   REMARKS
MARIANNA       PTCLDY    44  39  82 N10       30.28R WCI  39
BONIFAY        FAIR      42  35  76 N9        30.31R WCI  37
PANAMA CITY NW FAIR      44  37  76 N12G25    30.26R WCI  38
TYNDALL AFB    PTCLDY    46  41  81 N13G20    30.25R WCI  41
TYND DRONE APT FAIR      46  43  87 N23G29    30.24R WCI  38
DE FUNIAK SPR  CLOUDY    39  32  75 N13G29    30.30S WCI  32
EGLIN AFB      PTCLDY    41  33  73 N14G25    30.30R WCI  33
DESTIN         MOCLDY    42  34  73 N17G29    30.30R WCI  34
HURLBURT       PTCLDY    40  28  63 N18       30.30R WCI  31
CRESTVIEW      MOCLDY    39  31  72 N9G17     30.33R WCI  33
PENSACOLA      CLOUDY    38  30  73 N14G28    30.33R WCI  30
$$

!ALZ063-066-060400
...South Alabama...

CITY           SKY/WX    TMP DP  RH WIND       PRES   REMARKS
DOTHAN         PTCLDY    39  33  79 N15G22    30.32R WCI  31
OZARK CAIRNS   PTCLDY    38  30  72 NW6       30.31R WCI  34
FT RUCKER HELI PTCLDY    38  31  76 N12G18    30.31R WCI  30
RUCKER HELI 3  MOCLDY    37  31  80 N8G18     30.33R WCI  30
RUCKER HELI 2  FAIR      38  31  76 NW10      30.30R WCI  31
FLORALA APT    PTCLDY    37  30  75 N8        30.34R WCI  31
ANDALUSIA      CLOUDY    40  29  64 N13G22    30.33R WCI  32
TROY           MOCLDY    36  28  73 N14G22    30.34R WCI  27
EUFALA         MOCLDY    39  31  72 VRB7      30.30R WCI  34
MOBILE         CLOUDY    34  27  75 N16       30.40R WCI  24
$$

!GAZ120>161-060400
...Southwest and South Central Georgia...

CITY           SKY/WX    TMP DP  RH WIND       PRES   REMARKS
THOMASVILLE    CLOUDY    52  52 100 N12       30.23R
BAINBRIDGE     CLOUDY    48  43  81 N9        30.28R WCI  44
MOODY AFB      CLOUDY    58  55  88 NW15      30.17R
VALDOSTA       MOCLDY    59  56  89 VRB3      30.18R
MOULTRIE       CLOUDY    50  46  87 NW12      30.23R
BLAKELY        MOCLDY    45  37  76 N6        30.30R WCI  41
ALBANY         PTCLDY    46  39  76 NW13      30.30R WCI  41
TIFTON         MOCLDY    49  44  81 N12       30.21S WCI  45
FITZGERALD     CLOUDY    50  45  81 NW9       30.24S
CORDELE        FAIR      46  38  75 N7        30.26R WCI  42
AMERICUS       FAIR      41  34  75 N8        30.29R WCI  36
HOMERVILLE     MOCLDY    63  59  88 NW7       30.17R
$$

!GMZ750-755-770-775-060400
...Coastal and Buoy Obs...

STATION/POSITION TIME  TEMP    WIND        PRES    VSBY  WAVE
                       AIR SEA DIR/SP/G                  HT/PER
                 (UTC) (F)     (DEG/KT/KT) (MB)    (MI)  (FT/S)
KEATON BEACH     0300   63     340/  8/ 11 1021.7R
CEDAR KEY        0257   67     290/  7/  9 1021.6R
C TOWER          0300   58     360/ 20/ 21 1021.8R
APALACHICOLA BUO 0300   69 69  330/ 10/ 12 1021.1R         3/ 7
PANAMA CITY BUOY 0221   61 72  360/ 21/ 25 1022.6R         6/ 5
MOBILE BUOY      0203   48 69   20/ 29/ 35 1026.4         10/ 7
ORANGE BCH AL BU 0300   43 62  360/ 25/ 31 1025.6R         4/ 5
$$



USA.gov is the U.S. government's official web portal to all federal, state and local government web resources and services.